Terminal Aerodrome Forecast
Issued by NWS

Home | Current Version | Previous Version | Text Only | Print | Product List | Glossary On
Versions: 1 2 3 4 5 6 7 8 9 10 11 12 13 14 15 16 17 18 19 20 21 22 23 24 25 26 27 28 29 30 31 32 33 34 35 36 37 38 39 40 41 42 43 44 45 46 47
000
FTAK31 PANC 031730
TAFASD
TAF
PASD 031730Z 0318/0418 01008KT P6SM BKN045
     FM040000 06010KT P6SM VCSH BKN035 OVC050
     FM040600 08015KT 6SM -RA OVC022
     FM041200 12015G20KT 5SM -RA OVC015
      AMD LTD TO CLD VIS AND WIND=

USA.gov is the U.S. government's official web portal to all federal, state and local government web resources and services.